Flag for Brazil Weather past 2 weeks in Cruzeiro do Sul, Acre, Brazil

Now
70 °F

Passing clouds.


Feels Like: 70 °F
Forecast: 67 / 94 °F
Wind: 1 mph from North

Location: Pucallpa Airport

Current Time: Jul 31, 2014 at 5:15:16 AM

Latest Report: Jul 31, 2014 at 5:00 AM


Visibility: N/A

Pressure: 29.98 "Hg

Humidity: 94%

Dew point: 68 °F

Location of Cruzeiro do SulLocation

Historic Weather in Cruzeiro do Sul — Graph

°F

Cruzeiro do Sul temperature yesterday

Maximum temperature yesterday: 88 °F (at 2:00 PM)
Minimum temperature yesterday: 70 °F (at 7:00 AM)
Average temperature yesterday: 76 °F

Past Weeks' High & Low Weather Summary

 TemperatureHumidityPressure
High90 °F (Jul 16, 2:00 PM)100% (Jul 18, 6:00 AM)30.15 "Hg (Jul 18, 6:00 AM)
Low66 °F (Jul 26, 1:00 AM)55% (Jul 18, 4:00 PM)29.83 "Hg (Jul 23, 4:00 PM)
Average77 °F83%30.01 "Hg
* Reported Jul 16 4:00 AM — Jul 31 4:00 AM, Cruzeiro do Sul, Weather by CustomWeather, © 2014

Note: Actual official high and low records may vary slightly from our data, if they occured in-between our weather recording intervals... More about our weather records

Advertising

Cruzeiro do Sul weather history for previous 24 hours

 ConditionsComfort  
Time TempWeatherWind HumidityBarometerVisibility
4:00 AM
Jul 31
72 °FPassing clouds.No wind94%29.98 "HgN/A
3:00 AM72 °FPassing clouds.No wind94%29.98 "HgN/A
2:00 AM72 °FPassing clouds.No wind94%29.98 "HgN/A
1:00 AM73 °FPassing clouds.No wind94%30.01 "HgN/A
12:00 AM73 °FPassing clouds.No wind94%30.01 "HgN/A
11:00 PM
Jul 30
73 °FPassing clouds.No wind94%29.98 "Hg6 mi
10:00 PM75 °FPassing clouds.1 mph94%29.98 "Hg6 mi
9:00 PM77 °FPassing clouds.2 mph89%29.98 "Hg6 mi
8:00 PM79 °FPassing clouds.No wind79%29.95 "Hg6 mi
2:00 PM88 °FPartly sunny.6 mph59%30.01 "HgN/A
1:00 PM86 °FScattered clouds.5 mph62%30.04 "HgN/A
12:00 PM84 °FScattered clouds.3 mph70%30.07 "HgN/A
11:00 AM82 °FScattered clouds.1 mph74%30.09 "HgN/A
10:00 AM79 °FScattered clouds.2 mph79%30.09 "HgN/A
9:00 AM77 °FPartly sunny.5 mph83%30.12 "HgN/A
8:00 AM70 °FFog.1 mph100%30.09 "Hg1 mi
7:00 AM70 °FFog.2 mph100%30.07 "Hg1 mi
6:00 AM72 °FFog.2 mph100%30.04 "Hg1 mi
5:00 AM72 °FPassing clouds.No wind94%30.04 "HgN/A
Weather by CustomWeather, © 2014

See weather overviewHow to use our weather pages